Year,Month,Day,Hour,Minute,Value (Times are PST for temperature in C)
2018,04,04,00,00,2.40
2018,04,04,00,01,2.40
2018,04,04,00,02,2.40
2018,04,04,00,03,2.50
2018,04,04,00,04,2.50
2018,04,04,00,05,2.50
2018,04,04,00,06,2.50
2018,04,04,00,07,2.50
2018,04,04,00,08,2.50
2018,04,04,00,09,2.50
2018,04,04,00,10,2.50
2018,04,04,00,11,2.50
2018,04,04,00,12,2.60
2018,04,04,00,13,2.60
2018,04,04,00,14,2.60
2018,04,04,00,15,2.60
2018,04,04,00,16,2.60
2018,04,04,00,17,2.60
2018,04,04,00,18,2.60
2018,04,04,00,19,2.60
2018,04,04,00,20,2.60
2018,04,04,00,21,2.60
2018,04,04,00,22,2.60
2018,04,04,00,23,2.60
2018,04,04,00,24,2.60
2018,04,04,00,25,2.60
2018,04,04,00,26,2.60
2018,04,04,00,27,2.60
2018,04,04,00,28,2.70
2018,04,04,00,29,2.70
2018,04,04,00,30,2.70
2018,04,04,00,31,2.80
2018,04,04,00,32,2.80
2018,04,04,00,33,2.80
2018,04,04,00,34,2.80
2018,04,04,00,35,2.80
2018,04,04,00,36,2.90
2018,04,04,00,37,2.90
2018,04,04,00,38,2.90
2018,04,04,00,39,2.90
2018,04,04,00,40,2.90
2018,04,04,00,41,2.90
2018,04,04,00,42,2.90
2018,04,04,00,43,3.00
2018,04,04,00,44,3.00
2018,04,04,00,45,3.00
2018,04,04,00,46,3.00
2018,04,04,00,47,3.00
2018,04,04,00,48,3.00
2018,04,04,00,49,3.00
2018,04,04,00,50,3.00
2018,04,04,00,51,3.00
2018,04,04,00,52,3.00
2018,04,04,00,53,3.00
2018,04,04,00,54,3.00
2018,04,04,00,55,3.00
2018,04,04,00,56,3.00
2018,04,04,00,57,3.00
2018,04,04,00,58,3.00
2018,04,04,00,59,3.00
2018,04,04,01,00,3.00
2018,04,04,01,01,2.90
2018,04,04,01,02,2.90
2018,04,04,01,03,2.90
2018,04,04,01,04,2.90
2018,04,04,01,05,2.90
2018,04,04,01,06,2.90
2018,04,04,01,07,2.90
2018,04,04,01,08,2.90
2018,04,04,01,09,2.90
2018,04,04,01,10,2.90
2018,04,04,01,11,2.90
2018,04,04,01,12,2.90
2018,04,04,01,13,2.90
2018,04,04,01,14,2.90
2018,04,04,01,15,2.90
2018,04,04,01,16,2.90
2018,04,04,01,17,2.90
2018,04,04,01,18,2.90
2018,04,04,01,19,2.90
2018,04,04,01,20,2.90
2018,04,04,01,21,2.90
2018,04,04,01,22,2.90
2018,04,04,01,23,2.90
2018,04,04,01,24,2.90
2018,04,04,01,25,2.90
2018,04,04,01,26,2.80
2018,04,04,01,27,2.80
2018,04,04,01,28,2.80
2018,04,04,01,29,2.80
2018,04,04,01,30,2.80
2018,04,04,01,31,2.80
2018,04,04,01,32,2.80
2018,04,04,01,33,2.80
2018,04,04,01,34,2.80
2018,04,04,01,35,2.80
2018,04,04,01,36,2.80
2018,04,04,01,37,2.80
2018,04,04,01,38,2.80
2018,04,04,01,39,2.70
2018,04,04,01,40,2.70
2018,04,04,01,41,2.70
2018,04,04,01,42,2.70
2018,04,04,01,43,2.70
2018,04,04,01,44,2.70
2018,04,04,01,45,2.70
2018,04,04,01,46,2.60
2018,04,04,01,47,2.60
2018,04,04,01,48,2.60
2018,04,04,01,49,2.60
2018,04,04,01,50,2.60
2018,04,04,01,51,2.60
2018,04,04,01,52,2.60
2018,04,04,01,53,2.50
2018,04,04,01,54,2.50
2018,04,04,01,55,2.50
2018,04,04,01,56,2.50
2018,04,04,01,57,2.40
2018,04,04,01,58,2.40
2018,04,04,01,59,2.40
2018,04,04,02,00,2.40
2018,04,04,02,01,2.40
2018,04,04,02,02,2.40
2018,04,04,02,03,2.40
2018,04,04,02,04,2.40
2018,04,04,02,05,2.40
2018,04,04,02,06,2.40
2018,04,04,02,07,2.40
2018,04,04,02,08,2.30
2018,04,04,02,09,2.30
2018,04,04,02,10,2.20
2018,04,04,02,11,2.20
2018,04,04,02,12,2.20
2018,04,04,02,13,2.20
2018,04,04,02,14,2.20
2018,04,04,02,15,2.20
2018,04,04,02,16,2.20
2018,04,04,02,17,2.20
2018,04,04,02,18,2.20
2018,04,04,02,19,2.20
2018,04,04,02,20,2.20
2018,04,04,02,21,2.20
2018,04,04,02,22,2.20
2018,04,04,02,23,2.20
2018,04,04,02,24,2.20
2018,04,04,02,25,2.20
2018,04,04,02,26,2.20
2018,04,04,02,27,2.20
2018,04,04,02,28,2.20
2018,04,04,02,29,2.20
2018,04,04,02,30,2.20
2018,04,04,02,31,2.20
2018,04,04,02,32,2.20
2018,04,04,02,33,2.20
2018,04,04,02,34,2.20
2018,04,04,02,35,2.20
2018,04,04,02,36,2.20
2018,04,04,02,37,2.20
2018,04,04,02,38,2.20
2018,04,04,02,39,2.20
2018,04,04,02,40,2.20
2018,04,04,02,41,2.30
2018,04,04,02,42,2.30
2018,04,04,02,43,2.30
2018,04,04,02,44,2.30
2018,04,04,02,45,2.30
2018,04,04,02,46,2.30
2018,04,04,02,47,2.30
2018,04,04,02,48,2.30
2018,04,04,02,49,2.30
2018,04,04,02,50,2.30
2018,04,04,02,51,2.30
2018,04,04,02,52,2.30
2018,04,04,02,53,2.30
2018,04,04,02,54,2.30
2018,04,04,02,55,2.30
2018,04,04,02,56,2.30
2018,04,04,02,57,2.30
2018,04,04,02,58,2.30
2018,04,04,02,59,2.30
2018,04,04,03,00,2.30
2018,04,04,03,01,2.30
2018,04,04,03,02,2.30
2018,04,04,03,03,2.30
2018,04,04,03,04,2.30
2018,04,04,03,05,2.30
2018,04,04,03,06,2.30
2018,04,04,03,07,2.30
2018,04,04,03,08,2.30
2018,04,04,03,09,2.30
2018,04,04,03,10,2.30
2018,04,04,03,11,2.30
2018,04,04,03,12,2.30
2018,04,04,03,13,2.30
2018,04,04,03,14,2.30
2018,04,04,03,15,2.30
2018,04,04,03,16,2.30
2018,04,04,03,17,2.30
2018,04,04,03,18,2.30
2018,04,04,03,19,2.30
2018,04,04,03,20,2.30
2018,04,04,03,21,2.30
2018,04,04,03,22,2.30
2018,04,04,03,23,2.30
2018,04,04,03,24,2.30
2018,04,04,03,25,2.30
2018,04,04,03,26,2.30
2018,04,04,03,27,2.30
2018,04,04,03,28,2.30
2018,04,04,03,29,2.30
2018,04,04,03,30,2.30
2018,04,04,03,31,2.30
2018,04,04,03,32,2.30
2018,04,04,03,33,2.30
2018,04,04,03,34,2.30
2018,04,04,03,35,2.30
2018,04,04,03,36,2.30
2018,04,04,03,37,2.30
2018,04,04,03,38,2.30
2018,04,04,03,39,2.30
2018,04,04,03,40,2.30
2018,04,04,03,41,2.30
2018,04,04,03,42,2.30
2018,04,04,03,43,2.30
2018,04,04,03,44,2.30
2018,04,04,03,45,2.30
2018,04,04,03,46,2.30
2018,04,04,03,47,2.30
2018,04,04,03,48,2.40
2018,04,04,03,49,2.40
2018,04,04,03,50,2.40
2018,04,04,03,51,2.40
2018,04,04,03,52,2.40
2018,04,04,03,53,2.40
2018,04,04,03,54,2.40
2018,04,04,03,55,2.40
2018,04,04,03,56,2.40
2018,04,04,03,57,2.40
2018,04,04,03,58,2.40
2018,04,04,03,59,2.30
2018,04,04,04,00,2.30
2018,04,04,04,01,2.30
2018,04,04,04,02,2.30
2018,04,04,04,03,2.30
2018,04,04,04,04,2.30
2018,04,04,04,05,2.30
2018,04,04,04,06,2.30
2018,04,04,04,07,2.30
2018,04,04,04,08,2.30
2018,04,04,04,09,2.30
2018,04,04,04,10,2.30
2018,04,04,04,11,2.30
2018,04,04,04,12,2.30
2018,04,04,04,13,2.30
2018,04,04,04,14,2.30
2018,04,04,04,15,2.30
2018,04,04,04,16,2.30
2018,04,04,04,17,2.30
2018,04,04,04,18,2.30
2018,04,04,04,19,2.30
2018,04,04,04,20,2.30
2018,04,04,04,21,2.30
2018,04,04,04,22,2.30
2018,04,04,04,23,2.30
2018,04,04,04,24,2.30
2018,04,04,04,25,2.30
2018,04,04,04,26,2.30
2018,04,04,04,27,2.30
2018,04,04,04,28,2.30
2018,04,04,04,29,2.30
2018,04,04,04,30,2.30
2018,04,04,04,31,2.30
2018,04,04,04,32,2.30
2018,04,04,04,33,2.40
2018,04,04,04,34,2.40
2018,04,04,04,35,2.40
2018,04,04,04,36,2.40
2018,04,04,04,37,2.40
2018,04,04,04,38,2.40
2018,04,04,04,39,2.40
2018,04,04,04,40,2.40
2018,04,04,04,41,2.40
2018,04,04,04,42,2.40
2018,04,04,04,43,2.50
2018,04,04,04,44,2.50
2018,04,04,04,45,2.50
2018,04,04,04,46,2.50
2018,04,04,04,47,2.50
2018,04,04,04,48,2.50
2018,04,04,04,49,2.50
2018,04,04,04,50,2.50
2018,04,04,04,51,2.50
2018,04,04,04,52,2.50
2018,04,04,04,53,2.50
2018,04,04,04,54,2.50
2018,04,04,04,55,2.50
2018,04,04,04,56,2.50
2018,04,04,04,57,2.50
2018,04,04,04,58,2.50
2018,04,04,04,59,2.50
2018,04,04,05,00,2.50
2018,04,04,05,01,2.50
2018,04,04,05,02,2.50
2018,04,04,05,03,2.50
2018,04,04,05,04,2.50
2018,04,04,05,05,2.50
2018,04,04,05,06,2.60
2018,04,04,05,07,2.60
2018,04,04,05,08,2.60
2018,04,04,05,09,2.60
2018,04,04,05,10,2.60
2018,04,04,05,11,2.60
2018,04,04,05,12,2.60
2018,04,04,05,13,2.60
2018,04,04,05,14,2.60
2018,04,04,05,15,2.60
2018,04,04,05,16,2.60
2018,04,04,05,17,2.60
2018,04,04,05,18,2.60
2018,04,04,05,19,2.60
2018,04,04,05,20,2.60
2018,04,04,05,21,2.60
2018,04,04,05,22,2.60
2018,04,04,05,23,2.60
2018,04,04,05,24,2.50
2018,04,04,05,25,2.50
2018,04,04,05,26,2.50
2018,04,04,05,27,2.50
2018,04,04,05,28,2.50
2018,04,04,05,29,2.50
2018,04,04,05,30,2.50
2018,04,04,05,31,2.50
2018,04,04,05,32,2.50
2018,04,04,05,33,2.50
2018,04,04,05,34,2.50
2018,04,04,05,35,2.50
2018,04,04,05,36,2.50
2018,04,04,05,37,2.50
2018,04,04,05,38,2.50
2018,04,04,05,39,2.50
2018,04,04,05,40,2.50
2018,04,04,05,41,2.50
2018,04,04,05,42,2.50
2018,04,04,05,43,2.50
2018,04,04,05,44,2.50
2018,04,04,05,45,2.50
2018,04,04,05,46,2.50
2018,04,04,05,47,2.50
2018,04,04,05,48,2.40
2018,04,04,05,49,2.40
2018,04,04,05,50,2.50
2018,04,04,05,51,2.50
2018,04,04,05,52,2.50
2018,04,04,05,53,2.50
2018,04,04,05,54,2.50
2018,04,04,05,55,2.50
2018,04,04,05,56,2.50
2018,04,04,05,57,2.50
2018,04,04,05,58,2.50
2018,04,04,05,59,2.50
2018,04,04,06,00,2.50
2018,04,04,06,01,2.50
2018,04,04,06,02,2.50
2018,04,04,06,03,2.50
2018,04,04,06,04,2.50
2018,04,04,06,05,2.50
2018,04,04,06,06,2.60
2018,04,04,06,07,2.60
2018,04,04,06,08,2.60
2018,04,04,06,09,2.60
2018,04,04,06,10,2.60
2018,04,04,06,11,2.60
2018,04,04,06,12,2.60
2018,04,04,06,13,2.60
2018,04,04,06,14,2.60
2018,04,04,06,15,2.60
2018,04,04,06,16,2.70
2018,04,04,06,17,2.70
2018,04,04,06,18,2.70
2018,04,04,06,19,2.70
2018,04,04,06,20,2.70
2018,04,04,06,21,2.70
2018,04,04,06,22,2.70
2018,04,04,06,23,2.70
2018,04,04,06,24,2.70
2018,04,04,06,25,2.80
2018,04,04,06,26,2.80
2018,04,04,06,27,2.80
2018,04,04,06,28,2.80
2018,04,04,06,29,2.90
2018,04,04,06,30,2.90
2018,04,04,06,31,2.90
2018,04,04,06,32,2.90
2018,04,04,06,33,2.90
2018,04,04,06,34,2.90
2018,04,04,06,35,2.90
2018,04,04,06,36,3.00
2018,04,04,06,37,3.00
2018,04,04,06,38,3.00
2018,04,04,06,39,3.10
2018,04,04,06,40,3.10
2018,04,04,06,41,3.10
2018,04,04,06,42,3.10
2018,04,04,06,43,3.10
2018,04,04,06,44,3.10
2018,04,04,06,45,3.10
2018,04,04,06,46,3.10
2018,04,04,06,47,3.10
2018,04,04,06,48,3.10
2018,04,04,06,49,3.20
2018,04,04,06,50,3.20
2018,04,04,06,51,3.20
2018,04,04,06,52,3.20
2018,04,04,06,53,3.10
2018,04,04,06,54,3.20
2018,04,04,06,55,3.20
2018,04,04,06,56,3.20
2018,04,04,06,57,3.20
2018,04,04,06,58,3.10
2018,04,04,06,59,3.20
2018,04,04,07,00,3.20
2018,04,04,07,01,3.20
2018,04,04,07,02,3.30
2018,04,04,07,03,3.40
2018,04,04,07,04,3.50
2018,04,04,07,05,3.50
2018,04,04,07,06,3.50
2018,04,04,07,07,3.50
2018,04,04,07,08,3.50
2018,04,04,07,09,3.50
2018,04,04,07,10,3.40
2018,04,04,07,11,3.40
2018,04,04,07,12,3.40
2018,04,04,07,13,3.50
2018,04,04,07,14,3.50
2018,04,04,07,15,3.60
2018,04,04,07,16,3.60
2018,04,04,07,17,3.60
2018,04,04,07,18,3.60
2018,04,04,07,19,3.60
2018,04,04,07,20,3.60
2018,04,04,07,21,3.60
2018,04,04,07,22,3.50
2018,04,04,07,23,3.50
2018,04,04,07,24,3.50
2018,04,04,07,25,3.60
2018,04,04,07,26,3.60
2018,04,04,07,27,3.70
2018,04,04,07,28,3.70
2018,04,04,07,29,3.70
2018,04,04,07,30,3.70
2018,04,04,07,31,3.80
2018,04,04,07,32,3.80
2018,04,04,07,33,3.90
2018,04,04,07,34,4.00
2018,04,04,07,35,4.00
2018,04,04,07,36,4.00
2018,04,04,07,37,4.10
2018,04,04,07,38,4.00
2018,04,04,07,39,4.00
2018,04,04,07,40,4.00
2018,04,04,07,41,4.00
2018,04,04,07,42,4.00
2018,04,04,07,43,4.00
2018,04,04,07,44,4.00
2018,04,04,07,45,4.00
2018,04,04,07,46,4.10
2018,04,04,07,47,4.20
2018,04,04,07,48,4.20
2018,04,04,07,49,4.20
2018,04,04,07,50,4.20
2018,04,04,07,51,4.20
2018,04,04,07,52,4.20
2018,04,04,07,53,4.20
2018,04,04,07,54,4.10
2018,04,04,07,55,4.10
2018,04,04,07,56,4.10
2018,04,04,07,57,4.10
2018,04,04,07,58,4.10
2018,04,04,07,59,4.10
2018,04,04,08,00,4.10
2018,04,04,08,01,4.10
2018,04,04,08,02,4.10
2018,04,04,08,03,4.10
2018,04,04,08,04,4.20
2018,04,04,08,05,4.20
2018,04,04,08,06,4.20
2018,04,04,08,07,4.20
2018,04,04,08,08,4.30
2018,04,04,08,09,4.30
2018,04,04,08,10,4.30
2018,04,04,08,11,4.40
2018,04,04,08,12,4.40
2018,04,04,08,13,4.50
2018,04,04,08,14,4.50
2018,04,04,08,15,4.50
2018,04,04,08,16,4.50
2018,04,04,08,17,4.50
2018,04,04,08,18,4.60
2018,04,04,08,19,4.60
2018,04,04,08,20,4.60
2018,04,04,08,21,4.60
2018,04,04,08,22,4.60
2018,04,04,08,23,4.70
2018,04,04,08,24,4.70
2018,04,04,08,25,4.70
2018,04,04,08,26,4.70
2018,04,04,08,27,4.70
2018,04,04,08,28,4.80
2018,04,04,08,29,4.80
2018,04,04,08,30,4.80
2018,04,04,08,31,4.90
2018,04,04,08,32,4.90
2018,04,04,08,33,4.90
2018,04,04,08,34,4.90
2018,04,04,08,35,5.00
2018,04,04,08,36,5.00
2018,04,04,08,37,5.00
2018,04,04,08,38,5.10
2018,04,04,08,39,5.10
2018,04,04,08,40,5.10
2018,04,04,08,41,5.10
2018,04,04,08,42,5.10
2018,04,04,08,43,5.10
2018,04,04,08,44,5.20
2018,04,04,08,45,5.20
2018,04,04,08,46,5.20
2018,04,04,08,47,5.20
2018,04,04,08,48,5.20
2018,04,04,08,49,5.30
2018,04,04,08,50,5.30
2018,04,04,08,51,5.30
2018,04,04,08,52,5.30
2018,04,04,08,53,5.40
2018,04,04,08,54,5.40
2018,04,04,08,55,5.50
2018,04,04,08,56,5.50
2018,04,04,08,57,5.60
2018,04,04,08,58,5.60
2018,04,04,08,59,5.70
2018,04,04,09,00,5.70
2018,04,04,09,01,5.80
2018,04,04,09,02,5.80
2018,04,04,09,03,5.80
2018,04,04,09,04,5.90
2018,04,04,09,05,5.90
2018,04,04,09,06,6.00
2018,04,04,09,07,6.00
2018,04,04,09,08,6.10
2018,04,04,09,09,6.10
2018,04,04,09,10,6.20
2018,04,04,09,11,6.20
2018,04,04,09,12,6.20
2018,04,04,09,13,6.30
2018,04,04,09,14,6.30
2018,04,04,09,15,6.30
2018,04,04,09,16,6.30
2018,04,04,09,17,6.40
2018,04,04,09,18,6.40
2018,04,04,09,19,6.40
2018,04,04,09,20,6.40
2018,04,04,09,21,6.40
2018,04,04,09,22,6.40
2018,04,04,09,23,6.50
2018,04,04,09,24,6.50
2018,04,04,09,25,6.50
2018,04,04,09,26,6.50
2018,04,04,09,27,6.50
2018,04,04,09,28,6.60
2018,04,04,09,29,6.60
2018,04,04,09,30,6.60
2018,04,04,09,31,6.60
2018,04,04,09,32,6.60
2018,04,04,09,33,6.70
2018,04,04,09,34,6.70
2018,04,04,09,35,6.70
2018,04,04,09,36,6.70
2018,04,04,09,37,6.80
2018,04,04,09,38,6.80
2018,04,04,09,39,6.80
2018,04,04,09,40,6.80
2018,04,04,09,41,6.80
2018,04,04,09,42,6.80
2018,04,04,09,43,6.80
2018,04,04,09,44,6.80
2018,04,04,09,45,6.80
2018,04,04,09,46,6.80
2018,04,04,09,47,6.80
2018,04,04,09,48,6.80
2018,04,04,09,49,6.90
2018,04,04,09,50,6.90
2018,04,04,09,51,6.90
2018,04,04,09,52,6.90
2018,04,04,09,53,6.90
2018,04,04,09,54,6.90
2018,04,04,09,55,6.90
2018,04,04,09,56,7.00
2018,04,04,09,57,7.00
2018,04,04,09,58,7.10
2018,04,04,09,59,7.10
2018,04,04,10,00,7.10
2018,04,04,10,01,7.10
2018,04,04,10,02,7.20
2018,04,04,10,03,7.20
2018,04,04,10,04,7.20
2018,04,04,10,05,7.20
2018,04,04,10,06,7.20
2018,04,04,10,07,7.20
2018,04,04,10,08,7.20
2018,04,04,10,09,7.20
2018,04,04,10,10,7.20
2018,04,04,10,11,7.20
2018,04,04,10,12,7.20
2018,04,04,10,13,7.20
2018,04,04,10,14,7.30
2018,04,04,10,15,7.30
2018,04,04,10,16,7.30
2018,04,04,10,17,7.40
2018,04,04,10,18,7.40
2018,04,04,10,19,7.40
2018,04,04,10,20,7.40
2018,04,04,10,21,7.40
2018,04,04,10,22,7.40
2018,04,04,10,23,7.40
2018,04,04,10,24,7.30
2018,04,04,10,25,7.30
2018,04,04,10,26,7.30
2018,04,04,10,27,7.30
2018,04,04,10,28,7.30
2018,04,04,10,29,7.20
2018,04,04,10,30,7.20
2018,04,04,10,31,7.20
2018,04,04,10,32,7.20
2018,04,04,10,33,7.20
2018,04,04,10,34,7.20
2018,04,04,10,35,7.20
2018,04,04,10,36,7.20
2018,04,04,10,37,7.10
2018,04,04,10,38,7.10
2018,04,04,10,39,7.10
2018,04,04,10,40,7.10
2018,04,04,10,41,7.10
2018,04,04,10,42,7.00
2018,04,04,10,43,7.00
2018,04,04,10,44,7.00
2018,04,04,10,45,7.00
2018,04,04,10,46,7.00
2018,04,04,10,47,6.90
2018,04,04,10,48,6.90
2018,04,04,10,49,6.80
2018,04,04,10,50,6.80
2018,04,04,10,51,6.80
2018,04,04,10,52,6.80
2018,04,04,10,53,6.80
2018,04,04,10,54,6.80
2018,04,04,10,55,6.80
2018,04,04,10,56,6.70
2018,04,04,10,57,6.70
2018,04,04,10,58,6.70
2018,04,04,10,59,6.70
2018,04,04,11,00,6.70
2018,04,04,11,01,6.70
2018,04,04,11,02,6.70
2018,04,04,11,03,6.70
2018,04,04,11,04,6.70
2018,04,04,11,05,6.70
2018,04,04,11,06,6.70
2018,04,04,11,07,6.70
2018,04,04,11,08,6.70
2018,04,04,11,09,6.70
2018,04,04,11,10,6.70
2018,04,04,11,11,6.70
2018,04,04,11,12,6.70
2018,04,04,11,13,6.70
2018,04,04,11,14,6.70
2018,04,04,11,15,6.70
2018,04,04,11,16,6.70
2018,04,04,11,17,6.80
2018,04,04,11,18,6.80
2018,04,04,11,19,6.80
2018,04,04,11,20,6.80
2018,04,04,11,21,6.80
2018,04,04,11,22,6.90
2018,04,04,11,23,6.90
2018,04,04,11,24,6.90
2018,04,04,11,25,6.90
2018,04,04,11,26,6.90
2018,04,04,11,27,6.90
2018,04,04,11,28,6.90
2018,04,04,11,29,6.90
2018,04,04,11,30,6.90
2018,04,04,11,31,6.90
2018,04,04,11,32,6.90
2018,04,04,11,33,7.00
2018,04,04,11,34,7.00
2018,04,04,11,35,7.00
2018,04,04,11,36,7.00
2018,04,04,11,37,7.00
2018,04,04,11,38,7.00
2018,04,04,11,39,7.10
2018,04,04,11,40,7.10
2018,04,04,11,41,7.10
2018,04,04,11,42,7.00
2018,04,04,11,43,7.00
2018,04,04,11,44,7.00
2018,04,04,11,45,7.00
2018,04,04,11,46,7.00
2018,04,04,11,47,7.00
2018,04,04,11,48,7.00
2018,04,04,11,49,7.00
2018,04,04,11,50,7.00
2018,04,04,11,51,6.90
2018,04,04,11,52,6.90
2018,04,04,11,53,6.90
2018,04,04,11,54,6.90
2018,04,04,11,55,6.90
2018,04,04,11,56,6.90
2018,04,04,11,57,6.90
2018,04,04,11,58,6.90
2018,04,04,11,59,6.90
2018,04,04,12,00,6.90
2018,04,04,12,01,6.80
2018,04,04,12,02,6.80
2018,04,04,12,03,6.80
2018,04,04,12,04,6.80
2018,04,04,12,05,6.80
2018,04,04,12,06,6.80
2018,04,04,12,07,6.80
2018,04,04,12,08,6.80
2018,04,04,12,09,6.80
2018,04,04,12,10,6.80
2018,04,04,12,11,6.80
2018,04,04,12,12,6.80
2018,04,04,12,13,6.80
2018,04,04,12,14,6.80
2018,04,04,12,15,6.70
2018,04,04,12,16,6.70
2018,04,04,12,17,6.70
2018,04,04,12,18,6.70
2018,04,04,12,19,6.70
2018,04,04,12,20,6.70
2018,04,04,12,21,6.70
2018,04,04,12,22,6.80
2018,04,04,12,23,6.70
2018,04,04,12,24,6.70
2018,04,04,12,25,6.70
2018,04,04,12,26,6.70
2018,04,04,12,27,6.70
2018,04,04,12,28,6.60
2018,04,04,12,29,6.60
2018,04,04,12,30,6.60
2018,04,04,12,31,6.70
2018,04,04,12,32,6.70
2018,04,04,12,33,6.70
2018,04,04,12,34,6.70
2018,04,04,12,35,6.70
2018,04,04,12,36,6.70
2018,04,04,12,37,6.70
2018,04,04,12,38,6.70
2018,04,04,12,39,6.70
2018,04,04,12,40,6.70
2018,04,04,12,41,6.70
2018,04,04,12,42,6.70
2018,04,04,12,43,6.70
2018,04,04,12,44,6.70
2018,04,04,12,45,6.70
2018,04,04,12,46,6.70
2018,04,04,12,47,6.70
2018,04,04,12,48,6.70
2018,04,04,12,49,6.60
2018,04,04,12,50,6.60
2018,04,04,12,51,6.60
2018,04,04,12,52,6.60
2018,04,04,12,53,6.60
2018,04,04,12,54,6.60
2018,04,04,12,55,6.60
2018,04,04,12,56,6.60
2018,04,04,12,57,6.60
2018,04,04,12,58,6.60
2018,04,04,12,59,6.60
2018,04,04,13,00,6.60
2018,04,04,13,01,6.60
2018,04,04,13,02,6.60
2018,04,04,13,03,6.60
2018,04,04,13,04,6.60
2018,04,04,13,05,6.60
2018,04,04,13,06,6.50
2018,04,04,13,07,6.50
2018,04,04,13,08,6.40
2018,04,04,13,09,6.50
2018,04,04,13,10,6.50
2018,04,04,13,11,6.50
2018,04,04,13,12,6.60
2018,04,04,13,13,6.60
2018,04,04,13,14,6.60
2018,04,04,13,15,6.60
2018,04,04,13,16,6.60
2018,04,04,13,17,6.70
2018,04,04,13,18,6.60
2018,04,04,13,19,6.60
2018,04,04,13,20,6.60
2018,04,04,13,21,6.60
2018,04,04,13,22,6.60
2018,04,04,13,23,6.60
2018,04,04,13,24,6.60
2018,04,04,13,25,6.60
2018,04,04,13,26,6.60
2018,04,04,13,27,6.60
2018,04,04,13,28,6.60
2018,04,04,13,29,6.50
2018,04,04,13,30,6.50
2018,04,04,13,31,6.50
2018,04,04,13,32,6.50
2018,04,04,13,33,6.40
2018,04,04,13,34,6.40
2018,04,04,13,35,6.40
2018,04,04,13,36,6.40
2018,04,04,13,37,6.40
2018,04,04,13,38,6.50
2018,04,04,13,39,6.50
2018,04,04,13,40,6.40
2018,04,04,13,41,6.40
2018,04,04,13,42,6.40
2018,04,04,13,43,6.40
2018,04,04,13,44,6.40
2018,04,04,13,45,6.40
2018,04,04,13,46,6.40
2018,04,04,13,47,6.30
2018,04,04,13,48,6.30
2018,04,04,13,49,6.30
2018,04,04,13,50,6.30
2018,04,04,13,51,6.30
2018,04,04,13,52,6.30
2018,04,04,13,53,6.30
2018,04,04,13,54,6.30
2018,04,04,13,55,6.30
2018,04,04,13,56,6.30
2018,04,04,13,57,6.30
2018,04,04,13,58,6.30
2018,04,04,13,59,6.30
2018,04,04,14,00,6.30
2018,04,04,14,01,6.30
2018,04,04,14,02,6.40
2018,04,04,14,03,6.40
2018,04,04,14,04,6.40
2018,04,04,14,05,6.40
2018,04,04,14,06,6.50
2018,04,04,14,07,6.50
2018,04,04,14,08,6.50
2018,04,04,14,09,6.50
2018,04,04,14,10,6.40
2018,04,04,14,11,6.40
2018,04,04,14,12,6.40
2018,04,04,14,13,6.40
2018,04,04,14,14,6.40
2018,04,04,14,15,6.40
2018,04,04,14,16,6.40
2018,04,04,14,17,6.40
2018,04,04,14,18,6.40
2018,04,04,14,19,6.40
2018,04,04,14,20,6.40
2018,04,04,14,21,6.40
2018,04,04,14,22,6.40
2018,04,04,14,23,6.40
2018,04,04,14,24,6.40
2018,04,04,14,25,6.30
2018,04,04,14,26,6.30
2018,04,04,14,27,6.30
2018,04,04,14,28,6.40
2018,04,04,14,29,6.40
2018,04,04,14,30,6.40
2018,04,04,14,31,6.40
2018,04,04,14,32,6.40
2018,04,04,14,33,6.40
2018,04,04,14,34,6.30
2018,04,04,14,35,6.30
2018,04,04,14,36,6.30
2018,04,04,14,37,6.30
2018,04,04,14,38,6.30
2018,04,04,14,39,6.30
2018,04,04,14,40,6.30
2018,04,04,14,41,6.30
2018,04,04,14,42,6.30
2018,04,04,14,43,6.30
2018,04,04,14,44,6.30
2018,04,04,14,45,6.30
2018,04,04,14,46,6.30
2018,04,04,14,47,6.30
2018,04,04,14,48,6.30
2018,04,04,14,49,6.20
2018,04,04,14,50,6.20
2018,04,04,14,51,6.20
2018,04,04,14,52,6.20
2018,04,04,14,53,6.20
2018,04,04,14,54,6.20
2018,04,04,14,55,6.20
2018,04,04,14,56,6.20
2018,04,04,14,57,6.20
2018,04,04,14,58,6.20
2018,04,04,14,59,6.20
2018,04,04,15,00,6.20
2018,04,04,15,01,6.20
2018,04,04,15,02,6.10
2018,04,04,15,03,6.10
2018,04,04,15,04,6.10
2018,04,04,15,05,6.10
2018,04,04,15,06,6.10
2018,04,04,15,07,6.10
2018,04,04,15,08,6.10
2018,04,04,15,09,6.10
2018,04,04,15,10,6.10
2018,04,04,15,11,6.10
2018,04,04,15,12,6.10
2018,04,04,15,13,6.10
2018,04,04,15,14,6.10
2018,04,04,15,15,6.10
2018,04,04,15,16,6.10
2018,04,04,15,17,6.00
2018,04,04,15,18,6.10
2018,04,04,15,19,6.10
2018,04,04,15,20,6.10
2018,04,04,15,21,6.10
2018,04,04,15,22,6.10
2018,04,04,15,23,6.10
2018,04,04,15,24,6.10
2018,04,04,15,25,6.00
2018,04,04,15,26,6.10
2018,04,04,15,27,6.00
2018,04,04,15,28,6.00
2018,04,04,15,29,6.00
2018,04,04,15,30,6.00
2018,04,04,15,31,6.00
2018,04,04,15,32,6.00
2018,04,04,15,33,5.90
2018,04,04,15,34,5.90
2018,04,04,15,35,5.90
2018,04,04,15,36,5.90
2018,04,04,15,37,5.90
2018,04,04,15,38,6.00
2018,04,04,15,39,6.00
2018,04,04,15,40,6.00
2018,04,04,15,41,6.00
2018,04,04,15,42,6.00
2018,04,04,15,43,6.00
2018,04,04,15,44,6.10
2018,04,04,15,45,6.10
2018,04,04,15,46,6.10
2018,04,04,15,47,6.10
2018,04,04,15,48,6.10
2018,04,04,15,49,6.10
2018,04,04,15,50,6.00
2018,04,04,15,51,6.00
2018,04,04,15,52,6.00
2018,04,04,15,53,6.00
2018,04,04,15,54,6.00
2018,04,04,15,55,6.00
2018,04,04,15,56,6.00
2018,04,04,15,57,6.00
2018,04,04,15,58,5.90
2018,04,04,15,59,5.90
2018,04,04,16,00,5.90
2018,04,04,16,01,5.90
2018,04,04,16,02,5.90
2018,04,04,16,03,5.90
2018,04,04,16,04,5.90
2018,04,04,16,05,5.90
2018,04,04,16,06,5.90
2018,04,04,16,07,5.90
2018,04,04,16,08,5.80
2018,04,04,16,09,5.80
2018,04,04,16,10,5.80
2018,04,04,16,11,5.80
2018,04,04,16,12,5.80
2018,04,04,16,13,5.80
2018,04,04,16,14,5.80
2018,04,04,16,15,5.80
2018,04,04,16,16,5.80
2018,04,04,16,17,5.80
2018,04,04,16,18,5.80
2018,04,04,16,19,5.80
2018,04,04,16,20,5.80
2018,04,04,16,21,5.80
2018,04,04,16,22,5.80
2018,04,04,16,23,5.80
2018,04,04,16,24,5.80
2018,04,04,16,25,5.80
2018,04,04,16,26,5.80
2018,04,04,16,27,5.80
2018,04,04,16,28,5.80
2018,04,04,16,29,5.70
2018,04,04,16,30,5.70
2018,04,04,16,31,5.70
2018,04,04,16,32,5.70
2018,04,04,16,33,5.70
2018,04,04,16,34,5.70
2018,04,04,16,35,5.70
2018,04,04,16,36,5.70
2018,04,04,16,37,5.70
2018,04,04,16,38,5.70
2018,04,04,16,39,5.70
2018,04,04,16,40,5.70
2018,04,04,16,41,5.70
2018,04,04,16,42,5.60
2018,04,04,16,43,5.60
2018,04,04,16,44,5.60
2018,04,04,16,45,5.60
2018,04,04,16,46,5.60
2018,04,04,16,47,5.60
2018,04,04,16,48,5.60
2018,04,04,16,49,5.60
2018,04,04,16,50,5.60
2018,04,04,16,51,5.60
2018,04,04,16,52,5.60
2018,04,04,16,53,5.60
2018,04,04,16,54,5.60
2018,04,04,16,55,5.60
2018,04,04,16,56,5.60
2018,04,04,16,57,5.60
2018,04,04,16,58,5.60
2018,04,04,16,59,5.60
2018,04,04,17,00,5.60
2018,04,04,17,01,5.60
2018,04,04,17,02,5.50
2018,04,04,17,03,5.50
2018,04,04,17,04,5.50
2018,04,04,17,05,5.50
2018,04,04,17,06,5.50
2018,04,04,17,07,5.50
2018,04,04,17,08,5.50
2018,04,04,17,09,5.50
2018,04,04,17,10,5.50
2018,04,04,17,11,5.40
2018,04,04,17,12,5.40
2018,04,04,17,13,5.50
2018,04,04,17,14,5.50
2018,04,04,17,15,5.50
2018,04,04,17,16,5.40
2018,04,04,17,17,5.40
2018,04,04,17,18,5.40
2018,04,04,17,19,5.40
2018,04,04,17,20,5.40
2018,04,04,17,21,5.40
2018,04,04,17,22,5.40
2018,04,04,17,23,5.30
2018,04,04,17,24,5.30
2018,04,04,17,25,5.30
2018,04,04,17,26,5.40
2018,04,04,17,27,5.40
2018,04,04,17,28,5.40
2018,04,04,17,29,5.40
2018,04,04,17,30,5.40
2018,04,04,17,31,5.30
2018,04,04,17,32,5.30
2018,04,04,17,33,5.30
2018,04,04,17,34,5.30
2018,04,04,17,35,5.30
2018,04,04,17,36,5.40
2018,04,04,17,37,5.40
2018,04,04,17,38,5.30
2018,04,04,17,39,5.30
2018,04,04,17,40,5.30
2018,04,04,17,41,5.30
2018,04,04,17,42,5.30
2018,04,04,17,43,5.30
2018,04,04,17,44,5.30
2018,04,04,17,45,5.30
2018,04,04,17,46,5.30
2018,04,04,17,47,5.30
2018,04,04,17,48,5.30
2018,04,04,17,49,5.30
2018,04,04,17,50,5.30
2018,04,04,17,51,5.30
2018,04,04,17,52,5.30
2018,04,04,17,53,5.30
2018,04,04,17,54,5.30
2018,04,04,17,55,5.30
2018,04,04,17,56,5.30
2018,04,04,17,57,5.30
2018,04,04,17,58,5.30
2018,04,04,17,59,5.30
2018,04,04,18,00,5.30
2018,04,04,18,01,5.30
2018,04,04,18,02,5.30
2018,04,04,18,03,5.30
2018,04,04,18,04,5.30
2018,04,04,18,05,5.30
2018,04,04,18,06,5.20